Regional Weather Roundup
Issued by NWS

Home | Current Version | Previous Version | Graphics & Text | Print | Product List | Glossary On
Versions: 1 2 3 4 5 6 7 8 9 10 11 12 13 14 15 16 17 18 19 20 21 22 23 24 25 26 27 28 29 30 31 32 33 34 35 36 37 38 39 40 41 42 43 44 45 46 47 48 49 50
000
ASUS43 KFSD 022202
RWRSD

WEATHER ROUNDUP FOR SOUTH DAKOTA
NATIONAL WEATHER SERVICE SIOUX FALLS SD
400 PM CST FRI DEC 02 2016

NOTE: "FAIR" INDICATES FEW OR NO CLOUDS BELOW 12,000 FEET WITH NO
SIGNIFICANT WEATHER AND/OR OBSTRUCTIONS TO VISIBILITY.


SDZ001>005-009-010-012>017-022300-
NORTHWEST AND NORTH CENTRAL SOUTH DAKOTA

CITY           SKY/WX    TMP DP  RH WIND       PRES   REMARKS
BUFFALO          N/A     37  29  72 W13       30.10S
FAITH            N/A     29  26  89 S6        30.19S WCI  23
MOBRIDGE       CLOUDY    30  23  75 E8        30.22S WCI  22
$$

SDZ012>016-024>037-041>051-057-063-072>074-022300-
SOUTHWEST AND SOUTH CENTRAL SOUTH DAKOTA

CITY           SKY/WX    TMP DP  RH WIND       PRES   REMARKS
RAPID CTY ARPT CLOUDY    38  25  59 CALM      30.19R
PIERRE         CLOUDY    30  25  81 S3        30.24F
CUSTER         PTSUNNY   31  11  43 W3        30.12S
ELLSWORTH AFB  MOCLDY    36  28  71 SE7       30.18R
PHILIP         CLEAR     34  27  75 CALM      30.23S
PINE RIDGE     SUNNY     36  28  73 E5        30.19S
SPEARFISH      FAIR      32  21  64 NW7       30.16S WCI  26
WINNER         CLOUDY    35  26  69 CALM      30.26R
$$

SDZ004>011-016>023-039-040-022300-
NORTHEAST SOUTH DAKOTA

CITY           SKY/WX    TMP DP  RH WIND       PRES   REMARKS
ABERDEEN       CLOUDY    29  19  66 NW8       30.29S WCI  21
WATERTOWN      FLURRIES  25  19  78 N5        30.26R WCI  19
SISSETON         N/A     28  20  71 NW8       30.28R WCI  20
$$

SDZ017-020-022-023-036>040-048>070-022300-
SOUTHEAST SOUTH DAKOTA

CITY           SKY/WX    TMP DP  RH WIND       PRES   REMARKS
SIOUX FALLS    CLOUDY    32  25  75 W7        30.29R WCI  26
HURON          CLOUDY    30  24  78 NW7       30.30R WCI  23
CHAMBERLAIN    CLOUDY    33  30  90 CALM      30.27S
MITCHELL       CLOUDY    32  26  78 N5        30.31R WCI  27
YANKTON        CLOUDY    36  25  64 NW7       30.30R
$$

ABBREVIATIONS USED IN REMARKS
   TC - TEMPERATURE IN CELSIUS
  WCI - WIND CHILL INDEX
   HX - HEAT INDEX
  VSB - VISIBILITY





USA.gov is the U.S. government's official web portal to all federal, state and local government web resources and services.